This demonstration page uses our WeatherBlox Daily Observations layout. Learn more.

Left ArrowRight Arrow

Hourly Observations for July 13, 2018

Temp ( °F °C ) Dew Point ( °F °C ) Humidity (%) Winds ( mph kmh ) Pressure ( in mb ) Visibility ( mi km ) Precip ( " mm )
12:53 am 00:53 Clear 80 26.7 53 11.7 39 39 NNW 3 6 29.91 1013 10 16 0.00 0.00
1:53 am 01:53 Clear 77 25 54 12.2 45 45 Calm 29.92 1013 10 16 0.00 0.00
2:53 am 02:53 Clear 76 24.4 55 12.8 48 48 Calm 29.92 1013 10 16 0.00 0.00
3:53 am 03:53 Clear 74 23.3 56 13.3 54 54 Calm 29.93 1014 10 16 0.00 0.00
4:53 am 04:53 Clear 73 22.8 56 13.3 55 55 N 5 7 29.93 1014 10 16 0.00 0.00
5:53 am 05:53 Sunny 72 22.2 56 13.3 57 57 N 3 6 29.94 1014 10 16 0.00 0.00
6:53 am 06:53 Sunny 74 23.3 57 13.9 56 56 NNW 3 6 29.95 1014 10 16 0.00 0.00
7:53 am 07:53 Sunny 79 26.1 57 13.9 47 47 NW 5 7 29.96 1014 10 16 0.00 0.00
8:53 am 08:53 Sunny 84 28.9 55 12.8 37 37 NW 3 6 29.96 1015 10 16 0.00 0.00
9:53 am 09:53 Sunny 85 29.4 57 13.9 39 39 W 3 6 29.96 1015 10 16 0.00 0.00
10:53 am 10:53 Sunny 89 31.7 55 12.8 31 31 Calm 29.96 1015 10 16 0.00 0.00
11:53 am 11:53 Sunny 92 33.3 57 13.9 31 31 SW 5 7 29.96 1014 10 16 0.00 0.00
12:53 pm 12:53 Sunny 97 36.1 51 10.6 21 21 VRB 3 6 29.94 1014 10 16 0.00 0.00
1:53 pm 13:53 Sunny 98 36.7 49 9.4 19 19 SSE 12 19 29.93 1014 10 16 0.00 0.00
2:53 pm 14:53 Sunny 93 33.9 56 13.3 29 29 SSE 15 24 29.94 1014 10 16 0.00 0.00
3:53 pm 15:53 Sunny 91 32.8 55 12.8 30 30 S 8 13 29.93 1014 10 16 0.00 0.00
4:53 pm 16:53 Sunny 94 34.4 53 11.7 25 25 W 3 6 29.91 1013 10 16 0.00 0.00
5:53 pm 17:53 Sunny 96 35.6 53 11.7 23 23 SSE 3 6 29.90 1012 10 16 0.00 0.00
6:53 pm 18:53 Sunny 93 33.9 53 11.7 26 26 SSE 6 9 29.89 1012 10 16 0.00 0.00
7:53 pm 19:53 Mostly Sunny 92 33.3 53 11.7 27 27 SE 6 9 29.90 1012 10 16 0.00 0.00
8:53 pm 20:53 Clear 88 31.1 55 12.8 33 33 SSW 7 11 29.91 1013 10 16 0.00 0.00
9:53 pm 21:53 Clear 85 29.4 55 12.8 36 36 Calm 29.93 1013 10 16 0.00 0.00
10:53 pm 22:53 Clear 80 26.7 55 12.8 42 42 Calm 29.94 1014 10 16 0.00 0.00
11:53 pm 23:53 Clear 81 27.2 54 12.2 39 39 N 3 6 29.94 1014 10 16 0.00 0.00

Powered by AerisWeather